Regional Weather Roundup
Issued by NWS Upton, NY

Current Version | Previous Version | Text Only | Print | Product List | Glossary On
Versions: 1 2 3 4 5 6 7 8 9 10 11 12 13 14 15 16 17 18 19 20 21 22 23 24 25 26 27 28 29 30 31 32 33 34 35 36 37 38 39 40 41 42 43 44 45 46 47 48 49 50
000
ASUS41 KOKX 270718
RWROKX

REGIONAL WEATHER ROUNDUP
NATIONAL WEATHER SERVICE NEW YORK NY
300 AM EDT WED MAY 27 2015

NOTE: "FAIR" INDICATES FEW OR NO CLOUDS BELOW 12,000 FEET WITH NO
SIGNIFICANT WEATHER AND/OR OBSTRUCTIONS TO VISIBILITY.

NYZ071-072-176-178-NJZ106-104-270800-
NEW YORK CITY METRO AREA


CITY           SKY/WX    TMP DP  RH WIND       PRES   REMARKS
CENTRAL PARK   MOCLDY    72  61  68 SW6       30.18S
LAGUARDIA APRT MOCLDY    72  61  68 SW10      30.15S
KENNEDY INTL   PTCLDY    61  57  87 S5        30.17F
NEWARK/LIBERTY MOCLDY    70  63  78 S9        30.15F
BRNX BOT. GARD   N/A     72  61  68 SE6       30.15F
TETERBORO      CLOUDY    72  61  68 S10       30.14S
$$

NYZ177-179-078>081-270800-
LONG ISLAND NEW YORK

CITY           SKY/WX    TMP DP  RH WIND       PRES   REMARKS
FARMINGDALE    PTCLDY    64  59  83 SW8       30.18S
ISLIP          MOCLDY    64  59  83 SW15G22   30.17F
SHIRLEY        MOCLDY    65  59  81 SW9G18    30.20S
WESTHAMPTON    MOCLDY    62  59  90 SW7       30.22S
MONTAUK POINT    N/A     62  58  86 S9        30.21F
$$

NYZ052-065-067-270800-
HUDSON VALLEY

CITY           SKY/WX    TMP DP  RH WIND       PRES   REMARKS
WHITE PLAINS   PTCLDY    64  60  87 CALM      30.15F
NEWBURGH       PTCLDY    72  66  83 VRB3      30.15
MONTGOMERY     LGT RAIN  63  63 100 CALM      30.13S VSB 3/4
POUGHKEEPSIE   CLEAR     66  63  90 CALM      30.12S
ALBANY         CLOUDY    73  63  70 S12       30.08F
$$

NJZ001-105-106-008-010-013-015-019>022-104-270800-
NEW JERSEY

CITY           SKY/WX    TMP DP  RH WIND       PRES   REMARKS
NEWARK/LIBERTY MOCLDY    70  63  78 S9        30.15F
TETERBORO      CLOUDY    72  61  68 S10       30.14S
CALDWELL       CLEAR     70  61  73 CALM      30.15S
MORRISTOWN     CLEAR     70  63  78 CALM      30.15S
SOMERVILLE     CLEAR     66  62  87 CALM      30.14S
SUSSEX         CLEAR     69  63  81 SW3       30.15S
ANDOVER          N/A     69  64  84 CALM      30.14F
TRENTON        CLEAR     69  64  84 S8        30.16S
MILLVILLE      PTCLDY    69  65  86 SW6       30.18S
ATLANTIC CITY  PTCLDY    66  62  87 S8        30.19S
WRIGHTSTOWN    CLEAR     66  65  96 SW7       30.15S
TOMS RIVER     CLEAR    N/A N/A N/A S6        30.18R
BELMAR         CLEAR     68  57  68 SW6       30.18S
$$

PAZ047>061-062-071-270800-
EASTERN PENNSYLVANIA

CITY           SKY/WX    TMP DP  RH WIND       PRES   REMARKS
PHILADELPHIA   PTCLDY    71  65  81 S8        30.17S
ALLENTOWN      PTCLDY    72  63  73 SW7       30.14S
SCRANTON       PTCLDY    72  64  76 S3        30.13S
$$

CTZ002-004>006-009-010-012-RIZ004-006-007-MAZ004-011-015-270800-
SOUTHERN NEW ENGLAND
 IN CT

CITY           SKY/WX    TMP DP  RH WIND       PRES   REMARKS
BRADLEY INTL   MOCLDY    66  59  78 S8        30.14F
HARTFORD       PTCLDY    66  60  81 S7        30.15F
DANBURY        PTCLDY    66  59  78 S6        30.17S
WTRBRY/OXFORD  CLEAR     64  57  77 S6        30.19R
BRIDGEPORT     PTCLDY    65  60  84 SW5       30.16F
MERIDEN        PTCLDY    64  59  83 S6        30.16F
NEW HAVEN      PTCLDY    62  59  90 S3        30.17F
CHESTER        FAIR      64  61  88 SW6       30.19S
GROTON         PTCLDY    60  57  89 S5        30.19S
WILLIMANTIC    CLEAR     66  60  81 CALM      30.17F

 IN RI

CITY           SKY/WX    TMP DP  RH WIND       PRES   REMARKS
PROVIDENCE     PTCLDY    62  59  90 S8        30.18F
BLOCK ISLAND   CLEAR     57  54  88 SW12      30.21F
WESTERLY       CLEAR     63  59  87 SW7       30.20F

 IN MA

CITY           SKY/WX    TMP DP  RH WIND       PRES   REMARKS
BOSTON         CLOUDY    68  59  73 SW14      30.14F
WORCESTER      PTCLDY    64  58  80 SW12      30.17S
WESTFIELD      CLEAR     64  58  80 S5        30.14S
PROVINCETOWN   PTCLDY    59  55  88 S15G22    30.18S
NANTUCKET      PTCLDY    59  57  93 SW12      30.24S
$$

ANZ330-335-338-340-345-350-353-355-270800-
COASTAL MARINE OBSERVATIONS


STATION/POSITION TIME  SKY/WX   TEMP    WIND        PRES    VSBY  WAVE
                                AIR SEA DIR/SP/G                  HT/PER
                 (UTC)          (F)     (DEG/KT/KT) (MB)    (MI)  (FT/S)
NY HARB ENTRANCE 0650            60 56  200/ 16/ 19 1021.0          4/ 6
4S FIRE IS       0603               55                N/A           5/ 6
20S FIRE ISLAND  0650            60 56  210/ 14/ 14 1022.0          4/ 6
GREAT SOUTH BAY  0600            63 65  260/ 10/ 14   N/A
23SW MTP         0650            57 53  210/ 12/ 14 1022.6          4/ 6
HUDSON CANYON    NOT AVBL
KINGS POINT      0600            67                   N/A
CENTRAL LI SOUND 0615            62 55  230/  8/ 10   N/A
EASTERN LI SOUND 0600            60     250/  4/  6   N/A
ROBBINS REEF     0600            71                   N/A
$$


>>>>>>>>>>>>>>>>>>>>>>>>>>>> KEY <<<<<<<<<<<<<<<<<<<<<<<<<<<
>                                                          <
>     SKY/WX - SKY CONDITION/PRESENT WEATHER               <
>     TMP    - TEMPERATURE IN FAHRENHEIT                   <
>     DP     - DEWPOINT IN FAHRENHEIT                      <
>     RH     - RELATIVE HUMIDITY IN PERCENT                <
>     WIND   - DIRECTION AND SPEED IN MPH                  <
>     PRES   - MEAN SEA LEVEL PRESSURE IN INCHES OF HG     <
>     WCI    - WIND CHILL INDEX                            <
>     VSB    - VISIBILITY IN MILES                         <
>     HX     - HEAT INDEX                                  <
>     TC     - TEMPERATURE IN CELSIUS                      <
>     VRB    - VARIABLE WIND DIRECTION                     <
>                                                          <
>>>>>>>>>>>>>>>>>>>>>>>>>>>> KEY <<<<<<<<<<<<<<<<<<<<<<<<<<<




USA.gov is the U.S. government's official web portal to all federal, state and local government web resources and services.